カタログに戻る

DEMOSAT/FALCON 1

運用中科学VLEO
NORAD 33393·PAYLOAD·🇺🇸 United States

打ち上げ Sep 28, 2008 から Ronald Reagan Space and Missile Test Range

Loading…

次のパス (今後24時間)

TLE

最新Source: Space-Track

元期: Sep 14, 2026, 10:36 UTC

1 33393U 08048A   26257.44169024  .00002594  00000-0  15884-3 0  9992
2 33393   9.3450 248.7274 0010169 189.0171 170.9847 14.97001536976310

AllMySatでDEMOSAT/FALCON 1をリアルタイム追跡

Download on the App Store